owner,sensor,date,latitude,longitude,vertical_datum,mass_concentration_of_oxygen_in_sea_water,qcFlag 
DISL,ioos:station:DISL:CATA:1,2013-11-01T00:00:00Z,30.3085,-88.1395,2.566,8.01,1111122 
DISL,ioos:station:DISL:CATA:1,2013-11-01T00:30:00Z,30.3085,-88.1395,2.577,8.02,1111122 
DISL,ioos:station:DISL:CATA:1,2013-11-01T01:00:00Z,30.3085,-88.1395,2.586,7.94,1111122 
DISL,ioos:station:DISL:CATA:1,2013-11-01T01:30:00Z,30.3085,-88.1395,2.595,7.91,1111122 
DISL,ioos:station:DISL:CATA:1,2013-11-01T02:00:00Z,30.3085,-88.1395,2.612,8.05,1111122 
DISL,ioos:station:DISL:CATA:1,2013-11-01T02:30:00Z,30.3085,-88.1395,2.618,8.08,1111122 
DISL,ioos:station:DISL:CATA:1,2013-11-01T03:00:00Z,30.3085,-88.1395,2.63,8.02,1111122 
DISL,ioos:station:DISL:CATA:1,2013-11-01T03:30:00Z,30.3085,-88.1395,2.617,7.94,1111122 
DISL,ioos:station:DISL:CATA:1,2013-11-01T04:00:00Z,30.3085,-88.1395,2.621,7.84,1111122 
DISL,ioos:station:DISL:CATA:1,2013-11-01T04:30:00Z,30.3085,-88.1395,2.614,7.88,1111122 
DISL,ioos:station:DISL:CATA:1,2013-11-01T05:00:00Z,30.3085,-88.1395,2.584,7.84,1111122 
DISL,ioos:station:DISL:CATA:1,2013-11-01T05:30:00Z,30.3085,-88.1395,2.58,7.8,1111122 
DISL,ioos:station:DISL:CATA:1,2013-11-01T06:00:00Z,30.3085,-88.1395,2.553,7.64,1111122 
DISL,ioos:station:DISL:CATA:1,2013-11-01T06:30:00Z,30.3085,-88.1395,2.565,7.57,1111122 
DISL,ioos:station:DISL:CATA:1,2013-11-01T07:00:00Z,30.3085,-88.1395,2.538,7.45,1111122 
DISL,ioos:station:DISL:CATA:1,2013-11-01T07:30:00Z,30.3085,-88.1395,2.496,7.34,1111122 
DISL,ioos:station:DISL:CATA:1,2013-11-01T08:00:00Z,30.3085,-88.1395,2.468,7.17,1111122 
DISL,ioos:station:DISL:CATA:1,2013-11-01T08:30:00Z,30.3085,-88.1395,2.486,6.7,1111122 
DISL,ioos:station:DISL:CATA:1,2013-11-01T09:00:00Z,30.3085,-88.1395,2.465,6.59,1111122 
DISL,ioos:station:DISL:CATA:1,2013-11-01T09:30:00Z,30.3085,-88.1395,2.441,6.57,1111122 
DISL,ioos:station:DISL:CATA:1,2013-11-01T10:00:00Z,30.3085,-88.1395,2.434,6.79,1111122 
DISL,ioos:station:DISL:CATA:1,2013-11-01T10:30:00Z,30.3085,-88.1395,2.418,6.72,1111122 
DISL,ioos:station:DISL:CATA:1,2013-11-01T11:00:00Z,30.3085,-88.1395,2.388,6.77,1111122 
DISL,ioos:station:DISL:CATA:1,2013-11-01T11:30:00Z,30.3085,-88.1395,2.354,6.93,1111122 
DISL,ioos:station:DISL:CATA:1,2013-11-01T12:00:00Z,30.3085,-88.1395,2.341,7.04,1111122 
DISL,ioos:station:DISL:CATA:1,2013-11-01T12:30:00Z,30.3085,-88.1395,2.335,7.08,1111122 
DISL,ioos:station:DISL:CATA:1,2013-11-01T13:00:00Z,30.3085,-88.1395,2.347,7.16,1111122 
DISL,ioos:station:DISL:CATA:1,2013-11-01T13:30:00Z,30.3085,-88.1395,2.399,7.16,1111122 
DISL,ioos:station:DISL:CATA:1,2013-11-01T14:00:00Z,30.3085,-88.1395,2.393,7.24,1111122 
DISL,ioos:station:DISL:CATA:1,2013-11-01T14:30:00Z,30.3085,-88.1395,2.336,7.38,1111122 
DISL,ioos:station:DISL:CATA:1,2013-11-01T15:00:00Z,30.3085,-88.1395,2.318,7.44,1111122 
DISL,ioos:station:DISL:CATA:1,2013-11-01T15:30:00Z,30.3085,-88.1395,2.304,7.52,1111122 
DISL,ioos:station:DISL:CATA:1,2013-11-01T16:00:00Z,30.3085,-88.1395,2.292,7.53,1111122 
DISL,ioos:station:DISL:CATA:1,2013-11-01T16:30:00Z,30.3085,-88.1395,2.28,7.64,1111122 
DISL,ioos:station:DISL:CATA:1,2013-11-01T17:00:00Z,30.3085,-88.1395,2.303,7.55,1111122 
DISL,ioos:station:DISL:CATA:1,2013-11-01T17:30:00Z,30.3085,-88.1395,2.327,7.57,1111122 
DISL,ioos:station:DISL:CATA:1,2013-11-01T18:00:00Z,30.3085,-88.1395,2.352,7.35,1111122 
DISL,ioos:station:DISL:CATA:1,2013-11-01T18:30:00Z,30.3085,-88.1395,2.402,7.61,1111122 
DISL,ioos:station:DISL:CATA:1,2013-11-01T19:00:00Z,30.3085,-88.1395,2.413,7.88,1111122 
DISL,ioos:station:DISL:CATA:1,2013-11-01T19:30:00Z,30.3085,-88.1395,2.416,7.9,1111122 
DISL,ioos:station:DISL:CATA:1,2013-11-01T20:00:00Z,30.3085,-88.1395,2.43,8.03,1111122 
DISL,ioos:station:DISL:CATA:1,2013-11-01T20:30:00Z,30.3085,-88.1395,2.449,8.03,1111122 
DISL,ioos:station:DISL:CATA:1,2013-11-01T21:00:00Z,30.3085,-88.1395,2.462,7.97,1111122 
DISL,ioos:station:DISL:CATA:1,2013-11-01T21:30:00Z,30.3085,-88.1395,2.468,7.91,1111122 
DISL,ioos:station:DISL:CATA:1,2013-11-01T22:00:00Z,30.3085,-88.1395,2.495,7.93,1111122 
DISL,ioos:station:DISL:CATA:1,2013-11-01T22:30:00Z,30.3085,-88.1395,2.537,7.97,1111122 
DISL,ioos:station:DISL:CATA:1,2013-11-01T23:00:00Z,30.3085,-88.1395,2.556,7.99,1111122 
DISL,ioos:station:DISL:CATA:1,2013-11-01T23:30:00Z,30.3085,-88.1395,2.588,8.27,1111122 
DISL,ioos:station:DISL:CATA:1,2013-11-02T00:00:00Z,30.3085,-88.1395,2.624,8.32,1111122 
DISL,ioos:station:DISL:CATA:1,2013-11-02T00:30:00Z,30.3085,-88.1395,2.63,8.19,1111122 
DISL,ioos:station:DISL:CATA:1,2013-11-02T01:00:00Z,30.3085,-88.1395,2.65,8.22,1111122 
DISL,ioos:station:DISL:CATA:1,2013-11-02T01:30:00Z,30.3085,-88.1395,2.651,8.2,1111122 
DISL,ioos:station:DISL:CATA:1,2013-11-02T02:00:00Z,30.3085,-88.1395,2.668,8.04,1111122 
DISL,ioos:station:DISL:CATA:1,2013-11-02T02:30:00Z,30.3085,-88.1395,2.659,7.96,1111122 
DISL,ioos:station:DISL:CATA:1,2013-11-02T03:00:00Z,30.3085,-88.1395,2.637,7.84,1111122 
DISL,ioos:station:DISL:CATA:1,2013-11-02T03:30:00Z,30.3085,-88.1395,2.623,7.76,1111122 
DISL,ioos:station:DISL:CATA:1,2013-11-02T04:00:00Z,30.3085,-88.1395,2.599,7.79,1111122 
DISL,ioos:station:DISL:CATA:1,2013-11-02T04:30:00Z,30.3085,-88.1395,2.563,7.64,1111122 
DISL,ioos:station:DISL:CATA:1,2013-11-02T05:00:00Z,30.3085,-88.1395,2.524,7.6,1111122 
DISL,ioos:station:DISL:CATA:1,2013-11-02T05:30:00Z,30.3085,-88.1395,2.492,7.77,1111122 
DISL,ioos:station:DISL:CATA:1,2013-11-02T06:00:00Z,30.3085,-88.1395,2.463,7.71,1111122 
DISL,ioos:station:DISL:CATA:1,2013-11-02T06:30:00Z,30.3085,-88.1395,2.443,7.58,1111122 
DISL,ioos:station:DISL:CATA:1,2013-11-02T07:00:00Z,30.3085,-88.1395,2.406,7.53,1111122 
DISL,ioos:station:DISL:CATA:1,2013-11-02T07:30:00Z,30.3085,-88.1395,2.381,7.5,1111122 
DISL,ioos:station:DISL:CATA:1,2013-11-02T08:00:00Z,30.3085,-88.1395,2.356,7.46,1111122 
DISL,ioos:station:DISL:CATA:1,2013-11-02T08:30:00Z,30.3085,-88.1395,2.314,7.39,1111122 
DISL,ioos:station:DISL:CATA:1,2013-11-02T09:00:00Z,30.3085,-88.1395,2.279,7.3,1111122 
DISL,ioos:station:DISL:CATA:1,2013-11-02T09:30:00Z,30.3085,-88.1395,2.26,7.31,1111122 
DISL,ioos:station:DISL:CATA:1,2013-11-02T10:00:00Z,30.3085,-88.1395,2.237,7.32,1111122 
DISL,ioos:station:DISL:CATA:1,2013-11-02T10:30:00Z,30.3085,-88.1395,2.228,7.31,1111122 
DISL,ioos:station:DISL:CATA:1,2013-11-02T11:00:00Z,30.3085,-88.1395,2.212,7.29,1111122 
DISL,ioos:station:DISL:CATA:1,2013-11-02T11:30:00Z,30.3085,-88.1395,2.213,7.32,1111122 
DISL,ioos:station:DISL:CATA:1,2013-11-02T12:00:00Z,30.3085,-88.1395,2.226,7.25,1111122 
DISL,ioos:station:DISL:CATA:1,2013-11-02T12:30:00Z,30.3085,-88.1395,2.228,7.23,1111122 
DISL,ioos:station:DISL:CATA:1,2013-11-02T13:00:00Z,30.3085,-88.1395,2.237,7.13,1111122 
DISL,ioos:station:DISL:CATA:1,2013-11-02T13:30:00Z,30.3085,-88.1395,2.225,7.09,1111122 
DISL,ioos:station:DISL:CATA:1,2013-11-02T14:00:00Z,30.3085,-88.1395,2.203,7.24,1111122 
DISL,ioos:station:DISL:CATA:1,2013-11-02T14:30:00Z,30.3085,-88.1395,2.199,7.37,1111122 
DISL,ioos:station:DISL:CATA:1,2013-11-02T15:00:00Z,30.3085,-88.1395,2.205,7.51,1111122 
DISL,ioos:station:DISL:CATA:1,2013-11-02T15:30:00Z,30.3085,-88.1395,2.21,7.53,1111122 
DISL,ioos:station:DISL:CATA:1,2013-11-02T16:00:00Z,30.3085,-88.1395,2.217,7.78,1111122 
DISL,ioos:station:DISL:CATA:1,2013-11-02T16:30:00Z,30.3085,-88.1395,2.25,7.85,1111122 
DISL,ioos:station:DISL:CATA:1,2013-11-02T17:00:00Z,30.3085,-88.1395,2.278,8.08,1111122 
DISL,ioos:station:DISL:CATA:1,2013-11-02T17:30:00Z,30.3085,-88.1395,2.297,8.32,1111122 
DISL,ioos:station:DISL:CATA:1,2013-11-02T18:00:00Z,30.3085,-88.1395,2.31,8.3,1111122 
DISL,ioos:station:DISL:CATA:1,2013-11-02T18:30:00Z,30.3085,-88.1395,2.329,8.27,1111122 
DISL,ioos:station:DISL:CATA:1,2013-11-02T19:00:00Z,30.3085,-88.1395,2.331,8.18,1111122 
DISL,ioos:station:DISL:CATA:1,2013-11-02T19:30:00Z,30.3085,-88.1395,2.351,8.43,1111122 
DISL,ioos:station:DISL:CATA:1,2013-11-02T20:00:00Z,30.3085,-88.1395,2.354,8.71,1111122 
DISL,ioos:station:DISL:CATA:1,2013-11-02T20:30:00Z,30.3085,-88.1395,2.355,8.87,1111122 
DISL,ioos:station:DISL:CATA:1,2013-11-02T21:00:00Z,30.3085,-88.1395,2.378,8.76,1111122 
DISL,ioos:station:DISL:CATA:1,2013-11-02T21:30:00Z,30.3085,-88.1395,2.387,8.53,1111122 
DISL,ioos:station:DISL:CATA:1,2013-11-02T22:00:00Z,30.3085,-88.1395,2.401,8.33,1111122 
DISL,ioos:station:DISL:CATA:1,2013-11-02T22:30:00Z,30.3085,-88.1395,2.401,8.36,1111122 
DISL,ioos:station:DISL:CATA:1,2013-11-02T23:00:00Z,30.3085,-88.1395,2.419,8.28,1111122 
DISL,ioos:station:DISL:CATA:1,2013-11-02T23:30:00Z,30.3085,-88.1395,2.411,8.3,1111122 
DISL,ioos:station:DISL:CATA:1,2013-11-03T00:00:00Z,30.3085,-88.1395,2.417,8.22,1111122 
DISL,ioos:station:DISL:CATA:1,2013-11-03T00:30:00Z,30.3085,-88.1395,2.42,8.24,1111122 
DISL,ioos:station:DISL:CATA:1,2013-11-03T01:00:00Z,30.3085,-88.1395,2.435,8.22,1111122 
DISL,ioos:station:DISL:CATA:1,2013-11-03T01:30:00Z,30.3085,-88.1395,2.429,8.19,1111122 
DISL,ioos:station:DISL:CATA:1,2013-11-03T02:00:00Z,30.3085,-88.1395,2.421,8.22,1111122 
DISL,ioos:station:DISL:CATA:1,2013-11-03T02:30:00Z,30.3085,-88.1395,2.403,8.17,1111122 
DISL,ioos:station:DISL:CATA:1,2013-11-03T03:00:00Z,30.3085,-88.1395,2.396,7.94,1111122 
DISL,ioos:station:DISL:CATA:1,2013-11-03T03:30:00Z,30.3085,-88.1395,2.378,7.97,1111122 
DISL,ioos:station:DISL:CATA:1,2013-11-03T04:00:00Z,30.3085,-88.1395,2.38,7.91,1111122 
DISL,ioos:station:DISL:CATA:1,2013-11-03T04:30:00Z,30.3085,-88.1395,2.338,7.87,1111122 
DISL,ioos:station:DISL:CATA:1,2013-11-03T05:00:00Z,30.3085,-88.1395,2.313,8.57,1111122 
DISL,ioos:station:DISL:CATA:1,2013-11-03T05:30:00Z,30.3085,-88.1395,2.29,8.36,1111122 
DISL,ioos:station:DISL:CATA:1,2013-11-03T06:00:00Z,30.3085,-88.1395,2.257,8.12,1111122 
DISL,ioos:station:DISL:CATA:1,2013-11-03T06:30:00Z,30.3085,-88.1395,2.226,8.09,1111122 
DISL,ioos:station:DISL:CATA:1,2013-11-03T07:00:00Z,30.3085,-88.1395,2.182,8.1,1111122 
DISL,ioos:station:DISL:CATA:1,2013-11-03T07:30:00Z,30.3085,-88.1395,2.14,8.14,1111122 
DISL,ioos:station:DISL:CATA:1,2013-11-03T08:00:00Z,30.3085,-88.1395,2.099,8.1,1111122 
DISL,ioos:station:DISL:CATA:1,2013-11-03T08:30:00Z,30.3085,-88.1395,2.058,8.03,1111122 
DISL,ioos:station:DISL:CATA:1,2013-11-03T09:00:00Z,30.3085,-88.1395,2.023,7.99,1111122 
DISL,ioos:station:DISL:CATA:1,2013-11-03T09:30:00Z,30.3085,-88.1395,1.996,8.03,1111122 
DISL,ioos:station:DISL:CATA:1,2013-11-03T10:00:00Z,30.3085,-88.1395,1.96,8.05,1111122 
DISL,ioos:station:DISL:CATA:1,2013-11-03T10:30:00Z,30.3085,-88.1395,1.954,8.09,1111122 
DISL,ioos:station:DISL:CATA:1,2013-11-03T11:00:00Z,30.3085,-88.1395,1.943,8.15,1111122 
DISL,ioos:station:DISL:CATA:1,2013-11-03T11:30:00Z,30.3085,-88.1395,1.932,7.97,1111122 
DISL,ioos:station:DISL:CATA:1,2013-11-03T12:00:00Z,30.3085,-88.1395,1.935,7.91,1111122 
DISL,ioos:station:DISL:CATA:1,2013-11-03T12:30:00Z,30.3085,-88.1395,1.948,7.88,1111122 
DISL,ioos:station:DISL:CATA:1,2013-11-03T13:00:00Z,30.3085,-88.1395,1.973,7.61,1111122 
DISL,ioos:station:DISL:CATA:1,2013-11-03T13:30:00Z,30.3085,-88.1395,2.0,7.6,1111122 
DISL,ioos:station:DISL:CATA:1,2013-11-03T14:00:00Z,30.3085,-88.1395,2.02,7.52,1111122 
DISL,ioos:station:DISL:CATA:1,2013-11-03T14:30:00Z,30.3085,-88.1395,2.033,7.58,1111122 
DISL,ioos:station:DISL:CATA:1,2013-11-03T15:00:00Z,30.3085,-88.1395,2.05,7.76,1111122 
DISL,ioos:station:DISL:CATA:1,2013-11-03T15:30:00Z,30.3085,-88.1395,2.063,8.02,1111122 
DISL,ioos:station:DISL:CATA:1,2013-11-03T16:00:00Z,30.3085,-88.1395,2.081,8.23,1111122 
DISL,ioos:station:DISL:CATA:1,2013-11-03T16:30:00Z,30.3085,-88.1395,2.096,8.49,1111122 
DISL,ioos:station:DISL:CATA:1,2013-11-03T17:00:00Z,30.3085,-88.1395,2.118,8.67,1111122 
DISL,ioos:station:DISL:CATA:1,2013-11-03T17:30:00Z,30.3085,-88.1395,2.141,8.76,1111122 
DISL,ioos:station:DISL:CATA:1,2013-11-03T18:00:00Z,30.3085,-88.1395,2.163,8.68,1111122 
DISL,ioos:station:DISL:CATA:1,2013-11-03T18:30:00Z,30.3085,-88.1395,2.193,8.68,1111122 
DISL,ioos:station:DISL:CATA:1,2013-11-03T19:00:00Z,30.3085,-88.1395,2.213,8.77,1111122 
DISL,ioos:station:DISL:CATA:1,2013-11-03T19:30:00Z,30.3085,-88.1395,2.232,8.85,1111122 
DISL,ioos:station:DISL:CATA:1,2013-11-03T20:00:00Z,30.3085,-88.1395,2.248,8.91,1111122 
DISL,ioos:station:DISL:CATA:1,2013-11-03T20:30:00Z,30.3085,-88.1395,2.269,8.88,1111122 
DISL,ioos:station:DISL:CATA:1,2013-11-03T21:00:00Z,30.3085,-88.1395,2.287,8.92,1111122 
DISL,ioos:station:DISL:CATA:1,2013-11-03T21:30:00Z,30.3085,-88.1395,2.302,8.97,1111122 
DISL,ioos:station:DISL:CATA:1,2013-11-03T22:00:00Z,30.3085,-88.1395,2.325,8.94,1111122 
DISL,ioos:station:DISL:CATA:1,2013-11-03T22:30:00Z,30.3085,-88.1395,2.346,8.82,1111122 
DISL,ioos:station:DISL:CATA:1,2013-11-03T23:00:00Z,30.3085,-88.1395,2.382,8.87,1111122 
DISL,ioos:station:DISL:CATA:1,2013-11-03T23:30:00Z,30.3085,-88.1395,2.401,8.78,1111122 
DISL,ioos:station:DISL:CATA:1,2013-11-04T00:00:00Z,30.3085,-88.1395,2.418,8.81,1111122 
DISL,ioos:station:DISL:CATA:1,2013-11-04T00:30:00Z,30.3085,-88.1395,2.457,8.77,1111122 
DISL,ioos:station:DISL:CATA:1,2013-11-04T01:00:00Z,30.3085,-88.1395,2.489,8.63,1111122 
DISL,ioos:station:DISL:CATA:1,2013-11-04T01:30:00Z,30.3085,-88.1395,2.495,8.64,1111122 
DISL,ioos:station:DISL:CATA:1,2013-11-04T02:00:00Z,30.3085,-88.1395,2.519,8.84,1111122 
DISL,ioos:station:DISL:CATA:1,2013-11-04T02:30:00Z,30.3085,-88.1395,2.518,8.8,1111122 
DISL,ioos:station:DISL:CATA:1,2013-11-04T03:00:00Z,30.3085,-88.1395,2.541,8.85,1111122 
DISL,ioos:station:DISL:CATA:1,2013-11-04T03:30:00Z,30.3085,-88.1395,2.545,8.47,1111122 
DISL,ioos:station:DISL:CATA:1,2013-11-04T04:00:00Z,30.3085,-88.1395,2.532,8.11,1111122 
DISL,ioos:station:DISL:CATA:1,2013-11-04T04:30:00Z,30.3085,-88.1395,2.522,7.93,1111122 
DISL,ioos:station:DISL:CATA:1,2013-11-04T05:00:00Z,30.3085,-88.1395,2.496,8.51,1111122 
DISL,ioos:station:DISL:CATA:1,2013-11-04T05:30:00Z,30.3085,-88.1395,2.468,8.12,1111122 
DISL,ioos:station:DISL:CATA:1,2013-11-04T06:00:00Z,30.3085,-88.1395,2.42,8.45,1111122 
DISL,ioos:station:DISL:CATA:1,2013-11-04T06:30:00Z,30.3085,-88.1395,2.391,8.59,1111122 
DISL,ioos:station:DISL:CATA:1,2013-11-04T07:00:00Z,30.3085,-88.1395,2.341,8.55,1111122 
DISL,ioos:station:DISL:CATA:1,2013-11-04T07:30:00Z,30.3085,-88.1395,2.292,8.41,1111122 
DISL,ioos:station:DISL:CATA:1,2013-11-04T08:00:00Z,30.3085,-88.1395,2.233,8.36,1111122 
DISL,ioos:station:DISL:CATA:1,2013-11-04T08:30:00Z,30.3085,-88.1395,2.189,8.22,1111122 
DISL,ioos:station:DISL:CATA:1,2013-11-04T09:00:00Z,30.3085,-88.1395,2.157,8.01,1111122 
DISL,ioos:station:DISL:CATA:1,2013-11-04T09:30:00Z,30.3085,-88.1395,2.106,8.0,1111122 
DISL,ioos:station:DISL:CATA:1,2013-11-04T10:00:00Z,30.3085,-88.1395,2.064,8.03,1111122 
DISL,ioos:station:DISL:CATA:1,2013-11-04T10:30:00Z,30.3085,-88.1395,2.028,8.01,1111122 
DISL,ioos:station:DISL:CATA:1,2013-11-04T11:00:00Z,30.3085,-88.1395,1.987,8.08,1111122 
DISL,ioos:station:DISL:CATA:1,2013-11-04T11:30:00Z,30.3085,-88.1395,1.961,8.09,1111122 
DISL,ioos:station:DISL:CATA:1,2013-11-04T12:00:00Z,30.3085,-88.1395,1.955,8.09,1111122 
DISL,ioos:station:DISL:CATA:1,2013-11-04T12:30:00Z,30.3085,-88.1395,1.939,8.04,1111122 
DISL,ioos:station:DISL:CATA:1,2013-11-04T13:00:00Z,30.3085,-88.1395,1.934,8.06,1111122 
DISL,ioos:station:DISL:CATA:1,2013-11-04T13:30:00Z,30.3085,-88.1395,1.928,8.06,1111122 
DISL,ioos:station:DISL:CATA:1,2013-11-04T14:00:00Z,30.3085,-88.1395,1.922,8.09,1111122 
DISL,ioos:station:DISL:CATA:1,2013-11-04T14:30:00Z,30.3085,-88.1395,1.917,8.13,1111122 
DISL,ioos:station:DISL:CATA:1,2013-11-04T15:00:00Z,30.3085,-88.1395,1.909,8.15,1111122 
DISL,ioos:station:DISL:CATA:1,2013-11-04T15:30:00Z,30.3085,-88.1395,1.912,8.15,1111122 
DISL,ioos:station:DISL:CATA:1,2013-11-04T16:00:00Z,30.3085,-88.1395,1.901,8.13,1111122 
DISL,ioos:station:DISL:CATA:1,2013-11-04T16:30:00Z,30.3085,-88.1395,1.916,8.15,1111122 
DISL,ioos:station:DISL:CATA:1,2013-11-04T17:00:00Z,30.3085,-88.1395,1.944,8.11,1111122 
DISL,ioos:station:DISL:CATA:1,2013-11-04T17:30:00Z,30.3085,-88.1395,1.973,8.17,1111122 
DISL,ioos:station:DISL:CATA:1,2013-11-04T18:00:00Z,30.3085,-88.1395,2.005,8.16,1111122 
DISL,ioos:station:DISL:CATA:1,2013-11-04T18:30:00Z,30.3085,-88.1395,2.01,8.16,1111122 
DISL,ioos:station:DISL:CATA:1,2013-11-04T19:00:00Z,30.3085,-88.1395,2.021,8.15,1111122 
DISL,ioos:station:DISL:CATA:1,2013-11-04T19:30:00Z,30.3085,-88.1395,2.049,8.17,1111122 
DISL,ioos:station:DISL:CATA:1,2013-11-04T20:00:00Z,30.3085,-88.1395,2.067,8.11,1111122 
DISL,ioos:station:DISL:CATA:1,2013-11-04T20:30:00Z,30.3085,-88.1395,2.103,8.0,1111122 
DISL,ioos:station:DISL:CATA:1,2013-11-04T21:00:00Z,30.3085,-88.1395,2.134,7.9,1111122 
DISL,ioos:station:DISL:CATA:1,2013-11-04T21:30:00Z,30.3085,-88.1395,2.169,7.85,1111122 
DISL,ioos:station:DISL:CATA:1,2013-11-04T22:00:00Z,30.3085,-88.1395,2.195,7.83,1111122 
DISL,ioos:station:DISL:CATA:1,2013-11-04T22:30:00Z,30.3085,-88.1395,2.226,8.09,1111122 
DISL,ioos:station:DISL:CATA:1,2013-11-04T23:00:00Z,30.3085,-88.1395,2.252,8.0,1111122 
DISL,ioos:station:DISL:CATA:1,2013-11-04T23:30:00Z,30.3085,-88.1395,2.29,8.02,1111122 
DISL,ioos:station:DISL:CATA:1,2013-11-05T00:00:00Z,30.3085,-88.1395,2.324,8.08,1111122 
DISL,ioos:station:DISL:CATA:1,2013-11-05T00:30:00Z,30.3085,-88.1395,2.359,8.13,1111122 
DISL,ioos:station:DISL:CATA:1,2013-11-05T01:00:00Z,30.3085,-88.1395,2.4,8.13,1111122 
DISL,ioos:station:DISL:CATA:1,2013-11-05T01:30:00Z,30.3085,-88.1395,2.437,8.08,1111122 
DISL,ioos:station:DISL:CATA:1,2013-11-05T02:00:00Z,30.3085,-88.1395,2.489,8.05,1111122 
DISL,ioos:station:DISL:CATA:1,2013-11-05T02:30:00Z,30.3085,-88.1395,2.526,7.99,1111122 
DISL,ioos:station:DISL:CATA:1,2013-11-05T03:00:00Z,30.3085,-88.1395,2.563,8.01,1111122 
DISL,ioos:station:DISL:CATA:1,2013-11-05T03:30:00Z,30.3085,-88.1395,2.571,8.0,1111122 
DISL,ioos:station:DISL:CATA:1,2013-11-05T04:00:00Z,30.3085,-88.1395,2.591,7.98,1111122 
DISL,ioos:station:DISL:CATA:1,2013-11-05T04:30:00Z,30.3085,-88.1395,2.585,7.88,1111122 
DISL,ioos:station:DISL:CATA:1,2013-11-05T05:00:00Z,30.3085,-88.1395,2.606,7.87,1111122 
DISL,ioos:station:DISL:CATA:1,2013-11-05T05:30:00Z,30.3085,-88.1395,2.67,7.89,1111122 
DISL,ioos:station:DISL:CATA:1,2013-11-05T06:00:00Z,30.3085,-88.1395,2.523,7.91,1111122 
DISL,ioos:station:DISL:CATA:1,2013-11-05T06:30:00Z,30.3085,-88.1395,2.542,8.06,1111122 
DISL,ioos:station:DISL:CATA:1,2013-11-05T07:00:00Z,30.3085,-88.1395,2.52,8.13,1111122 
DISL,ioos:station:DISL:CATA:1,2013-11-05T07:30:00Z,30.3085,-88.1395,2.507,8.18,1111122 
DISL,ioos:station:DISL:CATA:1,2013-11-05T08:00:00Z,30.3085,-88.1395,2.446,8.16,1111122 
DISL,ioos:station:DISL:CATA:1,2013-11-05T08:30:00Z,30.3085,-88.1395,2.414,8.05,1111122 
DISL,ioos:station:DISL:CATA:1,2013-11-05T09:00:00Z,30.3085,-88.1395,2.381,8.0,1111122 
DISL,ioos:station:DISL:CATA:1,2013-11-05T09:30:00Z,30.3085,-88.1395,2.326,8.02,1111122 
DISL,ioos:station:DISL:CATA:1,2013-11-05T10:00:00Z,30.3085,-88.1395,2.289,8.02,1111122 
DISL,ioos:station:DISL:CATA:1,2013-11-05T10:30:00Z,30.3085,-88.1395,2.25,7.98,1111122 
DISL,ioos:station:DISL:CATA:1,2013-11-05T11:00:00Z,30.3085,-88.1395,2.196,7.99,1111122 
DISL,ioos:station:DISL:CATA:1,2013-11-05T11:30:00Z,30.3085,-88.1395,2.152,7.99,1111122 
DISL,ioos:station:DISL:CATA:1,2013-11-05T12:00:00Z,30.3085,-88.1395,2.086,8.04,1111122 
DISL,ioos:station:DISL:CATA:1,2013-11-05T12:30:00Z,30.3085,-88.1395,2.045,8.04,1111122 
DISL,ioos:station:DISL:CATA:1,2013-11-05T13:00:00Z,30.3085,-88.1395,2.033,8.05,1111122 
DISL,ioos:station:DISL:CATA:1,2013-11-05T13:30:00Z,30.3085,-88.1395,2.038,8.03,1111122 
DISL,ioos:station:DISL:CATA:1,2013-11-05T14:00:00Z,30.3085,-88.1395,2.032,8.05,1111122 
DISL,ioos:station:DISL:CATA:1,2013-11-05T14:30:00Z,30.3085,-88.1395,2.022,8.04,1111122 
DISL,ioos:station:DISL:CATA:1,2013-11-05T15:00:00Z,30.3085,-88.1395,2.029,8.04,1111122 
DISL,ioos:station:DISL:CATA:1,2013-11-05T15:30:00Z,30.3085,-88.1395,2.031,8.09,1111122 
DISL,ioos:station:DISL:CATA:1,2013-11-05T16:00:00Z,30.3085,-88.1395,2.041,8.09,1111122 
DISL,ioos:station:DISL:CATA:1,2013-11-05T16:30:00Z,30.3085,-88.1395,2.041,8.14,1111122 
DISL,ioos:station:DISL:CATA:1,2013-11-05T17:00:00Z,30.3085,-88.1395,2.051,8.11,1111122 
DISL,ioos:station:DISL:CATA:1,2013-11-05T17:30:00Z,30.3085,-88.1395,2.072,8.15,1111122 
DISL,ioos:station:DISL:CATA:1,2013-11-05T18:00:00Z,30.3085,-88.1395,2.106,8.14,1111122 
DISL,ioos:station:DISL:CATA:1,2013-11-05T18:30:00Z,30.3085,-88.1395,2.141,8.17,1111122 
DISL,ioos:station:DISL:CATA:1,2013-11-05T19:00:00Z,30.3085,-88.1395,2.171,8.06,1111122 
DISL,ioos:station:DISL:CATA:1,2013-11-05T19:30:00Z,30.3085,-88.1395,2.188,8.07,1111122 
DISL,ioos:station:DISL:CATA:1,2013-11-05T20:00:00Z,30.3085,-88.1395,2.203,7.92,1111122 
DISL,ioos:station:DISL:CATA:1,2013-11-05T20:30:00Z,30.3085,-88.1395,2.225,7.71,1111122 
DISL,ioos:station:DISL:CATA:1,2013-11-05T21:00:00Z,30.3085,-88.1395,2.241,7.79,1111122 
DISL,ioos:station:DISL:CATA:1,2013-11-05T21:30:00Z,30.3085,-88.1395,2.248,8.09,1111122 
DISL,ioos:station:DISL:CATA:1,2013-11-05T22:00:00Z,30.3085,-88.1395,2.279,8.18,1111122 
DISL,ioos:station:DISL:CATA:1,2013-11-05T22:30:00Z,30.3085,-88.1395,2.314,8.32,1111122 
DISL,ioos:station:DISL:CATA:1,2013-11-05T23:00:00Z,30.3085,-88.1395,2.341,8.4,1111122 
DISL,ioos:station:DISL:CATA:1,2013-11-05T23:30:00Z,30.3085,-88.1395,2.365,8.44,1111122 
DISL,ioos:station:DISL:CATA:1,2013-11-06T00:00:00Z,30.3085,-88.1395,2.399,8.45,1111122 
DISL,ioos:station:DISL:CATA:1,2013-11-06T00:30:00Z,30.3085,-88.1395,2.417,8.47,1111122 
DISL,ioos:station:DISL:CATA:1,2013-11-06T01:00:00Z,30.3085,-88.1395,2.459,8.42,1111122 
DISL,ioos:station:DISL:CATA:1,2013-11-06T01:30:00Z,30.3085,-88.1395,2.505,8.39,1111122 
DISL,ioos:station:DISL:CATA:1,2013-11-06T02:00:00Z,30.3085,-88.1395,2.558,8.38,1111122 
DISL,ioos:station:DISL:CATA:1,2013-11-06T02:30:00Z,30.3085,-88.1395,2.595,8.34,1111122 
DISL,ioos:station:DISL:CATA:1,2013-11-06T03:00:00Z,30.3085,-88.1395,2.615,8.32,1111122 
DISL,ioos:station:DISL:CATA:1,2013-11-06T03:30:00Z,30.3085,-88.1395,2.622,8.3,1111122 
DISL,ioos:station:DISL:CATA:1,2013-11-06T04:00:00Z,30.3085,-88.1395,2.645,8.39,1111122 
DISL,ioos:station:DISL:CATA:1,2013-11-06T04:30:00Z,30.3085,-88.1395,2.637,8.3,1111122 
DISL,ioos:station:DISL:CATA:1,2013-11-06T05:00:00Z,30.3085,-88.1395,2.629,8.26,1111122 
DISL,ioos:station:DISL:CATA:1,2013-11-06T05:30:00Z,30.3085,-88.1395,2.624,8.18,1111122 
DISL,ioos:station:DISL:CATA:1,2013-11-06T06:00:00Z,30.3085,-88.1395,2.625,7.79,1111122 
DISL,ioos:station:DISL:CATA:1,2013-11-06T06:30:00Z,30.3085,-88.1395,2.618,7.93,1111122 
DISL,ioos:station:DISL:CATA:1,2013-11-06T07:00:00Z,30.3085,-88.1395,2.612,8.0,1111122 
DISL,ioos:station:DISL:CATA:1,2013-11-06T07:30:00Z,30.3085,-88.1395,2.589,8.21,1111122 
DISL,ioos:station:DISL:CATA:1,2013-11-06T08:00:00Z,30.3085,-88.1395,2.569,8.19,1111122 
DISL,ioos:station:DISL:CATA:1,2013-11-06T08:30:00Z,30.3085,-88.1395,2.539,8.13,1111122 
DISL,ioos:station:DISL:CATA:1,2013-11-06T09:00:00Z,30.3085,-88.1395,2.502,8.15,1111122 
DISL,ioos:station:DISL:CATA:1,2013-11-06T09:30:00Z,30.3085,-88.1395,2.462,8.06,1111122 
DISL,ioos:station:DISL:CATA:1,2013-11-06T10:00:00Z,30.3085,-88.1395,2.419,8.1,1111122 
DISL,ioos:station:DISL:CATA:1,2013-11-06T10:30:00Z,30.3085,-88.1395,2.374,8.05,1111122 
DISL,ioos:station:DISL:CATA:1,2013-11-06T11:00:00Z,30.3085,-88.1395,2.329,8.03,1111122 
DISL,ioos:station:DISL:CATA:1,2013-11-06T11:30:00Z,30.3085,-88.1395,2.271,8.05,1111122 
DISL,ioos:station:DISL:CATA:1,2013-11-06T12:00:00Z,30.3085,-88.1395,2.227,8.07,1111122 
DISL,ioos:station:DISL:CATA:1,2013-11-06T12:30:00Z,30.3085,-88.1395,2.182,8.09,1111122 
DISL,ioos:station:DISL:CATA:1,2013-11-06T13:00:00Z,30.3085,-88.1395,2.146,8.0,1111122 
DISL,ioos:station:DISL:CATA:1,2013-11-06T13:30:00Z,30.3085,-88.1395,2.111,8.06,1111122 
DISL,ioos:station:DISL:CATA:1,2013-11-06T14:00:00Z,30.3085,-88.1395,2.081,8.11,1111122 
DISL,ioos:station:DISL:CATA:1,2013-11-06T14:30:00Z,30.3085,-88.1395,2.044,8.11,1111122 
DISL,ioos:station:DISL:CATA:1,2013-11-06T15:00:00Z,30.3085,-88.1395,2.037,8.17,1111122 
DISL,ioos:station:DISL:CATA:1,2013-11-06T15:30:00Z,30.3085,-88.1395,2.042,8.25,1111122 